This is the latest recevied weather packets stored in our database for station/object N0KTA-2. If no packets are shown the sender has not sent any weather packets the latest 10 day(s).
| Time | Temp. | Humidity | Pressure | Rain* | Wind** | Luminosity | Snow |
|---|---|---|---|---|---|---|---|
| 1777856365 | 26.11° C | 29% | 1003.6 hPa | 0 mm | - | - | - |
| 1777855765 | 26.67° C | 28% | 1003.7 hPa | 0 mm | - | - | - |
| 1777855164 | 26.67° C | 28% | 1003.8 hPa | 0 mm | - | - | - |
| 1777854566 | 27.22° C | 26% | 1003.8 hPa | 0 mm | - | - | - |
| 1777853964 | 27.22° C | 27% | 1003.9 hPa | 0 mm | - | - | - |
| 1777853365 | 27.22° C | 26% | 1004 hPa | 0 mm | - | - | - |
| 1777852764 | 27.78° C | 25% | 1004.2 hPa | 0 mm | - | - | - |
| 1777852166 | 27.78° C | 24% | 1004.4 hPa | 0 mm | - | - | - |
| 1777851565 | 28.33° C | 23% | 1004.4 hPa | 0 mm | - | - | - |
| 1777850966 | 28.33° C | 24% | 1004.5 hPa | 0 mm | - | - | - |
| 1777850365 | 28.89° C | 24% | 1004.4 hPa | 0 mm | - | - | - |
| 1777849766 | 28.89° C | 24% | 1004.4 hPa | 0 mm | - | - | - |
| 1777849165 | 28.89° C | 24% | 1004.3 hPa | 0 mm | - | - | - |
| 1777848566 | 29.44° C | 22% | 1004.4 hPa | 0 mm | - | - | - |
| 1777847964 | 29.44° C | 22% | 1004.6 hPa | 0 mm | - | - | - |
| 1777847365 | 29.44° C | 23% | 1004.6 hPa | 0 mm | - | - | - |
| 1777846766 | 30° C | 22% | 1004.6 hPa | 0 mm | - | - | - |
| 1777846165 | 29.44° C | 22% | 1004.7 hPa | 0 mm | - | - | - |
| 1777845564 | 29.44° C | 23% | 1004.7 hPa | 0 mm | - | - | - |
| 1777844965 | 30° C | 21% | 1004.8 hPa | 0 mm | - | - | - |
| 1777844364 | 30° C | 20% | 1005 hPa | 0 mm | - | - | - |
| 1777843766 | 30° C | 21% | 1005.2 hPa | 0 mm | - | - | - |
| 1777843164 | 30° C | 22% | 1005.3 hPa | 0 mm | - | - | - |
| 1777842565 | 30° C | 22% | 1005.4 hPa | 0 mm | - | - | - |
| 1777841964 | 30° C | 22% | 1005.7 hPa | 0 mm | - | - | - |
* Rain latest hour (hover to see other rain measurements)
** Current wind speed in m/s (hover to see current wind gust speed)